Location: downtown San Diego
(32.7310°N, 117.1990°W)
Time: 22:58:01
(UTC-07:00)

Cosmos 1500 Rocket - Pass Details

Date: 12 July 2018
Orbit: 603 x 632 km, 82.5° (Epoch: 20 September)

Event Time Altitude Azimuth Distance (km) Brightness Sun altitude
Exits shadow 21:10:46 19° 152° (SSE) 1,444 4.9 -13.7°
Maximum altitude 21:13:24 40° 92° (E) 897 4.0 -14.1°
Drops below altitude 10° 21:17:26 10° 23° (NNE) 1,957 6.3 -14.8°
Sets 21:19:45 0° 16° (NNE) 2,868 7.3 -15.1°
